This is the latest recevied weather packets stored in our database for station/object KC1IUC-15. If no packets are shown the sender has not sent any weather packets the latest 10 day(s).
| Time | Temp. | Humidity | Pressure | Rain* | Wind** | Luminosity | Snow |
|---|---|---|---|---|---|---|---|
| 1787764504 | 25.56° C | 58% | 1016.7 hPa | 0 mm | - | 118 W/m² | - |
| 1787764204 | 25.56° C | 55% | 1016.7 hPa | 0 mm | - | 761 W/m² | - |
| 1787763904 | 24.44° C | 58% | 1017.1 hPa | 0 mm | - | 595 W/m² | - |
| 1787763604 | 23.89° C | 59% | 1017.1 hPa | 0 mm | - | 291 W/m² | - |
| 1787763304 | 25° C | 57% | 1017.1 hPa | 0 mm | - | 723 W/m² | - |
| 1787763004 | 25.56° C | 57% | 1016.7 hPa | 0 mm | - | 619 W/m² | - |
| 1787762704 | 26.67° C | 52% | 1017.1 hPa | 0 mm | - | 160 W/m² | - |
| 1787762404 | 27.22° C | 53% | 1017.1 hPa | 0 mm | - | 169 W/m² | - |
| 1787762104 | 26.11° C | 54% | 1017.1 hPa | 0 mm | - | 691 W/m² | - |
| 1787761804 | 25.56° C | 57% | 1017.1 hPa | 0 mm | - | 728 W/m² | - |
| 1787761504 | 26.11° C | 54% | 1017.1 hPa | 0 mm | - | 779 W/m² | - |
| 1787761204 | 25.56° C | 54% | 1017.4 hPa | 0 mm | - | 723 W/m² | - |
| 1787760904 | 26.67° C | 54% | 1017.4 hPa | 0 mm | - | 725 W/m² | - |
| 1787760604 | 26.11° C | 56% | 1017.4 hPa | 0 mm | - | 714 W/m² | - |
| 1787760304 | 25° C | 57% | 1017.4 hPa | 0 mm | - | 695 W/m² | - |
| 1787760004 | 24.44° C | 57% | 1017.1 hPa | 0 mm | - | 717 W/m² | - |
| 1787759704 | 25° C | 57% | 1017.4 hPa | 0 mm | - | 727 W/m² | - |
| 1787759404 | 24.44° C | 60% | 1017.4 hPa | 0 mm | - | 705 W/m² | - |
| 1787759104 | 24.44° C | 58% | 1017.4 hPa | 0 mm | - | 563 W/m² | - |
| 1787758804 | 24.44° C | 59% | 1017.4 hPa | 0 mm | - | 718 W/m² | - |
| 1787758504 | 24.44° C | 58% | 1017.8 hPa | 0 mm | - | 674 W/m² | - |
| 1787758204 | 24.44° C | 61% | 1017.8 hPa | 0 mm | - | 683 W/m² | - |
| 1787757904 | 23.33° C | 62% | 1017.8 hPa | 0 mm | - | 664 W/m² | - |
| 1787757604 | 23.33° C | 63% | 1017.4 hPa | 0 mm | - | 657 W/m² | - |
| 1787757304 | 22.78° C | 67% | 1017.8 hPa | 0 mm | - | 637 W/m² | - |
* Rain latest hour (hover to see other rain measurements)
** Current wind speed in m/s (hover to see current wind gust speed)